Simultaneous Nadir Overpasses (SNOs) Predictions

Prediction of SNOs between METOP-B and NOAA-19 Satellite Orbit:

Table of predicted SNOs for the next 14.0 days since TLE Epoch: 8/2/2013
Index Date (METOP-B) Time (METOP-B) Lat,Lon (METOP-B) SZA (METOP-B ) Date (NOAA-19) Time (NOAA-19) Lat,Lon (NOAA-19) SZA (NOAA-19 ) Distance(km) Time Diff (sec)
1 08/03/2013 05:42:36 73.72, 88.71 56.32 08/03/2013 05:41:25 73.75, 87.27 56.44 45.00 71
2 08/03/2013 06:33:24 -73.44,-104.61 123.92 08/03/2013 06:32:23 -73.42,-104.71 123.92 3.61 61
3 08/03/2013 07:24:04 73.40, 62.63 56.05 08/03/2013 07:23:22 73.39, 62.62 56.05 0.78 42
4 08/03/2013 08:14:47 -73.37,-130.11 123.97 08/03/2013 08:14:26 -73.35,-130.06 123.98 2.35 21
5 08/03/2013 09:05:26 73.37, 37.24 56.05 08/03/2013 09:05:26 73.37, 37.16 56.05 2.64 0
6 08/03/2013 09:56:09 -73.34,-155.50 123.97 08/03/2013 09:56:30 -73.33,-155.53 123.99 1.79 21
7 08/03/2013 10:46:49 73.30, 11.73 56.00 08/03/2013 10:47:29 73.29, 11.80 55.99 2.31 40
8 08/03/2013 11:37:31 -73.32, 179.11 123.97 08/03/2013 11:38:34 -73.31, 179.00 123.99 3.65 63
9 08/03/2013 12:28:17 72.97, -14.31 55.73 08/03/2013 12:29:28 73.02, -13.11 55.71 39.68 71
10 08/13/2013 07:16:58 73.45, 64.52 58.93 08/13/2013 07:15:45 73.42, 64.53 58.91 3.73 73
11 08/13/2013 08:07:41 -73.44,-128.18 121.08 08/13/2013 08:06:48 -73.44,-128.28 121.06 2.96 53
12 08/13/2013 08:58:21 73.38, 39.02 58.88 08/13/2013 08:57:49 73.40, 39.06 58.91 2.53 32
13 08/13/2013 09:49:04 -73.36,-153.69 121.12 08/13/2013 09:48:51 -73.37,-153.63 121.12 1.79 13
14 08/13/2013 10:39:43 73.35, 13.63 58.88 08/13/2013 10:39:53 73.37, 13.59 58.91 2.49 10
15 08/13/2013 11:30:26 -73.34,-179.08 121.12 08/13/2013 11:30:55 -73.35,-179.10 121.12 1.06 29
16 08/13/2013 12:21:05 73.33, -11.77 58.89 08/13/2013 12:21:56 73.30, -11.76 58.85 2.99 51
17 08/13/2013 13:11:48 -73.32, 155.53 121.12 08/13/2013 13:12:59 -73.33, 155.43 121.12 3.48 71
18 08/13/2013 14:02:41 72.60, -38.66 58.26 08/13/2013 14:03:47 72.64, -35.81 58.15 94.78 66




NCC Satellite Simultaneous Nadir Overpasses (SNOs) Prediction Service
